Location: Frankfurt+am+Main
(50.1100°N, 8.4815°E)
Time: 05:48:58
(UTC+01:00)

ISS - Pass Details

Date: 04 January 2018
Orbit: 401 x 406 km, 51.6° (Epoch: 17 January)

Event Time Altitude Azimuth Distance (km) Brightness Sun altitude
Exits shadow 05:23:22 19° 80° (E) 1,041 -1.0 -27.9°
Drops below altitude 10° 05:24:27 10° 76° (ENE) 1,468 -0.1 -27.7°
Sets 05:26:33 0° 73° (ENE) 2,332 1.1 -27.4°
